GFSFLT2_850_spd_045.txt.gz
Wind_Speed
19 22 24 19 19 26 26 27 29 31 32 31 30 29 28 26 25 24 22 21 20 20 19 19 20 21 22 21 13 5 5 8
24 18 21 28 29 30 26 27 28 31 31 30 30 28 27 26 25 22 20 18 17 17 17 18 21 21 20 18 14 9 7 8
25 7 21 25 26 25 24 25 27 28 29 28 28 28 27 26 24 21 18 16 16 15 18 18 18 15 14 15 9 7 3 6
13 21 31 26 19 26 29 29 29 29 27 26 26 27 26 25 22 19 16 14 14 16 15 12 13 10 8 11 8 3 1 4
21 26 28 30 31 32 30 31 29 30 28 27 26 23 22 21 20 16 12 10 12 13 10 11 8 7 2 6 5 1 2 4
25 32 33 32 37 36 34 32 35 33 31 27 24 20 21 19 15 13 12 13 12 10 8 7 5 4 3 6 6 3 2 3
29 33 35 34 35 35 34 35 34 28 29 26 22 19 17 13 12 11 11 12 11 7 4 5 7 3 4 4 7 5 3 3
35 37 35 39 42 44 43 41 37 29 28 24 19 15 12 10 9 8 11 10 9 7 8 7 7 3 3 2 1 2 1 6
36 44 48 46 45 44 46 49 38 33 27 29 20 13 10 11 11 10 11 11 12 11 6 8 6 5 2 4 2 5 8 6
25 31 38 40 44 44 49 49 46 36 35 27 29 15 12 11 11 16 16 15 15 14 13 11 11 9 7 5 6 10 10 8
26 32 38 41 37 38 38 46 43 40 30 36 19 13 17 16 17 19 18 19 19 18 17 14 13 12 10 9 8 12 10 8
27 32 37 39 38 37 35 28 35 37 39 27 15 18 22 23 19 19 21 20 21 20 16 17 16 14 13 10 11 14 14 11
29 31 31 34 35 31 35 31 36 38 32 21 21 25 23 27 22 22 21 21 22 20 20 22 21 19 15 14 13 17 20 17
28 33 38 37 35 33 29 27 26 26 29 27 27 25 23 25 22 24 23 25 24 22 23 24 22 22 18 16 10 12 19 19
38 40 39 36 29 26 24 24 27 29 35 33 28 26 23 28 25 26 26 23 24 25 24 23 22 22 20 15 7 6 7 9
37 34 35 33 30 29 32 33 34 31 31 35 30 30 27 28 25 25 28 21 22 26 26 25 22 23 22 23 17 15 9 3
37 36 34 30 28 31 33 33 31 32 27 27 25 24 24 25 26 25 27 26 25 26 27 30 24 29 20 20 15 17 14 15
38 38 38 35 35 35 36 33 32 32 29 28 26 25 25 28 26 27 28 29 28 27 29 29 25 28 26 24 19 22 21 19
41 40 39 39 38 34 35 36 38 36 35 35 33 32 32 26 31 26 28 28 30 31 32 29 29 30 26 24 23 24 21 22
41 42 41 41 42 39 37 37 40 42 38 36 32 30 29 29 30 27 26 22 27 32 32 33 33 31 31 28 26 24 24 24

GFSFLT2_850_spd_048.txt.gz
Wind_Speed
20 25 21 25 37 28 32 33 34 36 36 36 35 34 32 31 28 27 25 24 24 23 23 22 23 19 14 10 9 9 10 14
19 20 29 31 26 33 27 28 31 33 33 33 34 33 32 30 27 25 23 22 21 20 21 22 20 13 11 9 10 8 9 11
19 19 21 24 22 26 31 26 30 32 33 33 33 32 31 29 26 23 21 21 19 20 20 21 19 12 7 6 6 6 7 10
25 20 27 21 30 36 34 30 32 32 33 33 32 32 31 28 26 23 20 18 18 18 17 16 15 11 7 5 3 5 7 9
20 16 23 26 32 29 33 35 35 34 32 33 31 31 30 28 26 22 19 16 16 14 10 11 10 7 4 6 2 3 4 5
18 14 26 36 28 34 37 38 37 36 34 33 32 31 28 26 23 19 15 14 14 11 9 8 6 4 4 5 4 1 2 3
24 24 35 34 38 42 41 39 37 35 33 32 30 29 27 23 19 17 14 13 12 11 9 5 4 3 5 5 4 2 2 4
30 30 35 39 44 44 38 39 36 34 34 31 27 28 23 18 17 13 13 15 13 9 5 5 9 6 3 7 4 1 4 4
32 32 39 41 42 41 39 40 39 38 33 28 26 23 20 17 13 11 14 14 10 8 7 10 11 7 4 5 3 2 6 7
30 38 35 42 44 44 45 43 41 40 35 29 26 22 18 14 11 13 13 12 10 12 13 11 10 9 9 7 6 5 6 8
26 39 42 42 47 47 46 43 45 40 37 34 28 20 17 13 11 14 15 16 15 16 17 15 13 14 12 11 10 6 7 10
21 26 37 43 44 43 44 41 44 43 38 38 35 26 18 16 15 16 18 19 20 19 19 18 20 15 14 14 13 11 11 12
26 32 40 41 41 42 44 44 44 42 40 37 33 25 21 19 21 18 20 22 23 23 22 23 21 20 20 18 17 16 16 15
29 34 36 38 41 44 45 48 44 39 44 43 39 29 26 22 24 25 24 25 27 27 26 24 23 24 24 21 19 21 20 18
30 32 33 37 37 36 40 36 35 42 46 45 38 36 28 25 27 26 25 25 29 30 26 27 26 26 28 23 9 13 14 19
29 33 34 35 38 37 41 39 39 42 45 44 38 31 26 25 27 26 27 29 32 29 28 28 26 27 27 28 27 19 11 9
33 35 39 38 38 38 37 37 34 34 37 41 36 31 31 30 32 28 30 32 30 29 28 30 29 29 30 30 25 22 22 22
37 40 42 41 39 37 39 40 38 37 37 36 35 34 34 32 31 31 31 30 28 27 25 28 30 31 31 26 29 29 26 28
43 40 40 40 40 39 41 41 39 40 39 39 37 35 38 37 31 28 25 25 29 29 28 28 31 33 32 29 28 32 31 27
47 46 43 42 43 42 41 41 43 44 41 41 40 37 36 28 27 24 27 28 26 28 30 32 33 33 31 30 26 28 27 28

GFSFLT2_850_spd_051.txt.gz
Wind_Speed
26 39 28 24 35 43 36 39 37 36 36 38 38 38 35 34 33 32 31 29 25 21 21 21 18 15 12 12 13 14 15 16
13 25 32 27 48 37 32 32 37 35 36 38 37 37 34 33 33 31 29 29 26 21 21 19 15 14 12 12 12 12 13 15
20 14 17 22 30 38 31 33 37 36 37 38 38 37 34 32 31 30 28 26 25 23 18 17 12 10 9 9 9 10 12 14
18 12 25 21 29 33 33 31 29 33 37 36 37 36 33 31 29 28 26 24 24 23 18 15 12 9 8 8 7 9 10 12
25 32 30 30 34 48 43 37 33 30 34 35 37 36 33 30 29 25 23 21 21 22 19 15 13 10 8 7 7 7 8 9
22 24 26 32 33 35 45 46 44 36 37 36 37 36 33 29 27 23 20 21 19 17 15 13 9 8 6 7 7 6 6 6
23 30 28 34 44 49 48 44 41 44 38 36 36 36 33 28 24 21 19 19 15 14 13 9 7 6 6 7 6 5 5 5
21 28 30 37 41 39 44 44 44 41 39 37 36 33 31 28 23 19 18 16 13 11 10 8 8 5 5 7 7 4 3 4
23 23 34 37 37 39 42 43 41 40 39 37 34 32 29 25 19 19 16 15 12 12 10 8 9 7 5 6 5 3 2 3
29 29 36 39 39 43 40 42 41 39 37 34 33 29 23 20 20 17 16 16 12 9 7 7 9 9 6 6 6 5 3 4
24 38 35 36 42 37 39 40 40 39 36 34 33 27 23 20 18 17 16 13 11 9 10 10 9 9 9 9 9 8 8 7
16 25 37 39 45 44 40 40 38 39 35 35 31 27 24 20 15 14 13 13 14 13 14 14 14 12 12 13 13 12 14 11
14 24 44 43 42 44 44 41 41 41 39 36 31 23 22 19 16 15 14 15 17 17 18 19 19 17 17 18 17 18 18 17
20 21 35 40 42 42 47 43 43 39 39 40 36 27 21 20 19 17 17 16 19 22 22 23 21 22 23 22 19 21 23 22
22 27 31 35 39 41 42 39 41 40 41 43 42 39 26 21 22 20 20 22 23 25 27 28 27 25 26 22 10 15 15 19
22 25 31 33 36 36 39 43 45 47 41 41 45 43 38 34 27 24 25 26 28 29 29 31 31 28 26 28 30 27 15 8
22 23 27 30 33 36 40 43 46 45 43 46 42 47 44 35 30 29 23 26 29 29 30 32 33 29 30 30 32 33 31 28
24 27 28 31 34 36 38 39 45 47 46 49 49 45 45 41 37 32 28 31 32 30 30 35 33 31 32 31 35 33 31 30
29 31 34 34 36 39 40 40 40 42 39 40 41 43 45 43 39 37 37 36 31 29 31 32 32 30 31 32 34 36 33 28
34 34 36 39 39 40 39 40 41 41 40 41 43 45 43 40 37 36 37 35 29 27 29 31 24 26 29 32 34 33 31 33

GFSFLT2_850_spd_054.txt.gz
Wind_Speed
28 32 27 25 25 28 31 30 32 30 33 36 36 35 33 31 31 31 27 25 24 25 25 23 20 18 18 18 19 19 18 19
26 28 34 26 27 30 38 39 32 35 37 38 37 33 31 32 32 31 28 24 24 24 23 21 19 17 16 16 17 17 18 17
15 27 34 24 13 32 45 36 33 37 40 39 37 34 33 33 32 30 26 23 22 22 22 20 18 16 13 14 15 16 16 16
24 8 17 23 24 35 42 36 35 36 39 39 38 35 33 32 30 28 26 23 21 19 17 15 13 13 13 12 13 15 15 15
21 10 24 20 37 32 43 38 35 32 37 38 38 37 35 32 31 28 25 22 21 20 17 13 12 12 12 11 11 12 13 13
19 17 28 33 35 41 48 43 39 36 35 37 38 37 35 33 30 27 26 22 19 18 19 15 12 12 10 10 9 10 11 10
17 28 31 30 31 44 50 45 41 40 41 39 39 37 34 32 30 26 24 23 20 18 17 14 11 10 10 9 8 8 8 8
30 25 28 27 33 44 49 52 47 41 41 37 39 37 34 31 28 25 23 20 18 16 14 11 10 9 8 10 8 6 5 6
23 28 24 31 41 45 51 51 48 46 43 37 37 37 33 30 26 23 21 19 17 15 12 10 9 9 8 8 7 5 3 4
25 30 28 34 38 46 50 47 44 48 44 39 39 36 32 27 23 21 19 17 14 13 9 9 9 8 6 7 7 5 3 1
22 30 33 37 39 45 47 47 45 42 39 42 39 36 31 24 21 20 19 17 15 12 11 9 8 9 8 7 8 8 8 6
17 27 36 42 43 41 39 40 39 40 40 40 40 36 29 22 20 20 19 19 17 14 11 10 9 8 9 8 11 12 13 13
13 19 31 41 41 36 37 42 40 40 39 40 38 33 26 25 22 21 20 17 13 13 11 12 12 13 14 14 16 17 18 17
12 14 22 33 35 40 44 47 42 42 36 38 36 38 30 27 22 20 19 16 13 15 15 16 16 18 19 18 18 21 24 22
17 16 25 32 40 42 43 40 40 45 35 39 38 40 34 27 26 22 17 15 14 14 17 20 20 21 24 21 9 14 13 16
23 22 25 36 38 41 45 42 49 49 40 36 37 39 36 33 26 20 19 16 17 18 20 22 24 28 28 29 29 29 18 10
18 25 26 31 38 39 41 41 41 49 47 42 41 43 39 38 29 22 21 20 20 22 24 25 28 33 34 35 31 32 31 31
19 27 31 33 35 37 40 43 42 45 50 45 41 40 42 42 44 37 29 27 25 23 25 28 31 33 35 36 34 33 32 32
23 26 30 34 37 37 39 41 42 43 50 49 48 46 46 45 48 50 41 35 30 31 31 34 34 33 33 37 33 33 35 33
25 27 30 31 35 39 42 44 44 44 46 49 53 54 48 49 47 47 48 39 36 37 39 38 38 27 34 31 26 31 35 34

GFSFLT2_850_spd_057.txt.gz
Wind_Speed
24 25 29 32 31 31 32 34 36 37 37 38 38 35 32 30 30 30 29 29 28 27 25 24 23 22 21 21 21 20 21 21
23 25 29 31 30 28 30 32 32 37 37 40 38 37 34 31 29 28 27 27 27 26 24 22 21 19 20 20 21 20 20 20
15 24 36 35 31 36 35 31 36 38 40 39 38 36 34 32 30 27 26 27 27 24 21 21 20 18 18 19 19 20 19 18
16 3 13 21 30 26 29 39 36 36 39 41 38 37 36 33 29 27 25 26 25 24 22 19 17 18 17 17 18 18 17 16
21 13 16 25 29 33 41 42 38 36 41 39 38 36 36 33 30 27 26 25 26 23 20 17 15 15 17 16 16 16 16 16
22 10 16 20 23 30 50 48 43 37 38 39 38 38 36 35 32 28 26 25 22 22 21 17 16 14 14 15 14 14 14 14
18 14 21 21 24 39 42 44 40 36 37 38 38 37 36 33 31 28 27 25 23 22 18 18 16 15 14 12 12 11 11 11
15 13 22 24 29 37 37 35 40 41 36 38 35 34 35 33 31 29 27 24 23 21 17 14 14 15 14 13 11 10 9 9
15 17 23 28 32 37 39 39 39 42 35 38 36 32 32 32 30 29 26 23 21 22 19 15 14 15 13 13 11 8 7 6
16 26 24 27 29 41 44 44 44 42 34 37 36 38 35 31 30 29 26 22 22 21 18 17 15 13 13 12 10 8 6 5
20 22 22 29 29 42 44 43 44 40 40 40 40 37 34 33 30 28 26 22 21 19 16 16 17 15 13 10 10 10 9 7
24 26 24 26 27 41 45 45 43 41 42 44 38 36 36 33 29 27 24 22 22 18 16 16 14 12 11 10 11 13 13 11
23 26 25 34 33 41 45 49 45 42 43 44 39 36 37 33 29 26 24 23 21 18 18 17 15 14 12 13 13 15 17 16
19 21 22 31 35 40 45 48 47 40 45 44 37 40 40 35 30 27 24 24 24 24 21 18 17 16 17 15 11 16 22 21
19 24 24 29 38 40 41 39 44 42 42 41 42 42 40 35 32 26 23 26 25 19 20 20 18 17 19 17 7 10 10 14
22 23 22 30 36 42 41 47 53 50 43 42 38 38 38 34 33 30 29 28 25 18 15 18 19 20 22 25 25 24 14 9
20 26 25 30 33 38 43 45 49 36 42 45 39 39 40 41 38 37 31 28 26 17 19 20 20 23 23 27 29 30 33 29
22 28 26 30 34 38 41 43 50 39 42 50 45 43 43 44 41 35 39 33 27 22 20 19 19 23 24 28 32 30 30 31
24 29 31 34 34 37 36 41 46 47 49 54 46 48 48 47 45 41 43 39 32 29 27 25 25 27 27 30 34 34 33 37
26 27 29 32 36 37 37 39 44 44 50 54 53 53 50 46 49 48 47 51 45 43 40 37 32 33 33 33 33 30 35 36